sat.trackr.live / text

‹ back to catalog

STARLINK-2418

NORAD 48097 · 2021-027F

PAYLOAD ACTIVE UNKNOWN

§ Identity

Operator
Country
US
Launch date
2021-04-07
Launch site
AFETR
Launch vehicle
Mass (kg)
RCS (m²)

Purposes: comms

External: N2YO · Heavens-Above · Gunter

§ Orbital elements

Epoch: 2026-09-20T04:46:34.547808Z

Period
93.95 min
Inclination
53.1578°
Eccentricity
0.0002573
Mean motion
15.32785636 rev/d
Perigee alt
465.7 km
Apogee alt
469.3 km
Semi-major
6,845.6 km
B*
8.5416e-4
RAAN
327.6395°
Arg perigee
37.9799°
Mean anomaly
322.1384°
Rev number
30,248

§ Raw data

STARLINK-24181 48097U 21027F   26263.19901097  .00027154  00000+0  85416-3 0  99902 48097  53.1578 327.6395 0002573  37.9799 322.1384 15.32785636302481

JSON: /api/v1/satellites/48097 · /tle

For live sub-satellite position, see the globe view (requires WebGL).

§ Visibility from observer

Set your observer location to see the next 7 days of passes ≥ 10°. The values pass through the URL so the page stays shareable.

No JS? Fill the form by hand. The geolocation button needs JavaScript.